| time (UTC) | temp F | wind direction | speed MPH | gust MPH | rain 1hr in | rain 24hr in | rain mn in | humidity % | barometer mb |
| 20260510130101 | 59 | 251 | 0.0 | 0.0 | 0.00 | 0.00 | 0.00 | 41 | 1013.0 |
| 20260510125059 | 58 | 251 | 0.0 | 0.0 | 0.00 | 0.00 | 0.00 | 41 | 1013.0 |
| 20260510123059 | 57 | 251 | 0.0 | 0.0 | 0.00 | 0.00 | 0.00 | 41 | 1013.0 |
| 20260510122059 | 57 | 251 | 0.0 | 0.0 | 0.00 | 0.00 | 0.00 | 41 | 1013.0 |
| 20260510121059 | 56 | 251 | 0.0 | 0.0 | 0.00 | 0.00 | 0.00 | 41 | 1013.0 |
| 20260510115059 | 56 | 251 | 0.0 | 0.0 | 0.00 | 0.00 | 0.00 | 41 | 1013.0 |
| 20260510114059 | 55 | 251 | 0.0 | 0.0 | 0.00 | 0.00 | 0.00 | 41 | 1013.0 |
| 20260510113059 | 55 | 251 | 0.0 | 0.0 | 0.00 | 0.00 | 0.00 | 41 | 1013.0 |
| 20260510111059 | 55 | 251 | 0.0 | 0.0 | 0.00 | 0.00 | 0.00 | 41 | 1013.0 |
| 20260510110101 | 55 | 251 | 0.0 | 0.0 | 0.00 | 0.00 | 0.00 | 41 | 1013.0 |
| 20260510105059 | 55 | 251 | 0.0 | 0.0 | 0.00 | 0.00 | 0.00 | 41 | 1013.0 |
| 20260510104059 | 55 | 251 | 0.0 | 0.0 | 0.00 | 0.00 | 0.00 | 41 | 1013.0 |
| 20260510103059 | 54 | 251 | 0.0 | 0.0 | 0.00 | 0.00 | 0.00 | 41 | 1013.0 |
| 20260510101059 | 54 | 251 | 0.0 | 0.0 | 0.00 | 0.00 | 0.00 | 41 | 1013.0 |
| 20260510100101 | 54 | 251 | 0.0 | 0.0 | 0.00 | 0.00 | 0.00 | 41 | 1013.0 |
| 20260510094059 | 54 | 251 | 0.0 | 0.0 | 0.00 | 0.00 | 0.00 | 41 | 1013.0 |
| 20260510093059 | 54 | 251 | 0.0 | 0.0 | 0.00 | 0.00 | 0.00 | 41 | 1013.0 |
| 20260510092059 | 54 | 251 | 0.0 | 0.0 | 0.00 | 0.00 | 0.00 | 41 | 1013.0 |
| 20260510091059 | 55 | 251 | 0.0 | 0.0 | 0.00 | 0.00 | 0.00 | 41 | 1013.0 |
| 20260510085059 | 55 | 251 | 0.0 | 0.0 | 0.00 | 0.00 | 0.00 | 41 | 1013.0 |
| 20260510084059 | 55 | 251 | 0.0 | 0.0 | 0.00 | 0.00 | 0.00 | 41 | 1013.0 |
| 20260510083059 | 55 | 251 | 0.0 | 0.0 | 0.00 | 0.00 | 0.00 | 41 | 1013.0 |
| 20260510082059 | 55 | 251 | 0.0 | 0.0 | 0.00 | 0.00 | 0.00 | 41 | 1013.0 |
| 20260510081059 | 56 | 251 | 0.0 | 0.0 | 0.00 | 0.00 | 0.00 | 41 | 1013.0 |
| 20260510075059 | 56 | 251 | 0.0 | 0.0 | 0.00 | 0.00 | 0.00 | 41 | 1013.0 |
| 20260510074059 | 56 | 251 | 0.0 | 0.0 | 0.00 | 0.00 | 0.00 | 41 | 1013.0 |
| 20260510073100 | 57 | 251 | 0.0 | 0.0 | 0.00 | 0.00 | 0.00 | 41 | 1013.0 |
| 20260510071059 | 57 | 251 | 0.0 | 0.0 | 0.00 | 0.00 | 0.00 | 41 | 1013.0 |
| 20260510065100 | 58 | 251 | 0.0 | 0.0 | 0.00 | 0.00 | 0.00 | 41 | 1013.0 |
| 20260510064059 | 58 | 251 | 0.0 | 0.0 | 0.00 | 0.00 | 0.00 | 41 | 1013.0 |
| 20260510063059 | 58 | 251 | 0.0 | 0.0 | 0.00 | 0.00 | 0.00 | 41 | 1013.0 |
| 20260510062059 | 58 | 251 | 0.0 | 0.0 | 0.00 | 0.00 | 0.00 | 41 | 1013.0 |
| 20260510061100 | 59 | 251 | 0.0 | 0.0 | 0.00 | 0.00 | 0.00 | 41 | 1013.0 |
| 20260510060101 | 59 | 251 | 0.0 | 0.0 | 0.00 | 0.00 | 0.00 | 41 | 1013.0 |
| 20260510055059 | 59 | 251 | 0.0 | 0.0 | 0.00 | 0.00 | 0.00 | 41 | 1013.0 |
| 20260510054059 | 59 | 251 | 0.0 | 0.0 | 0.00 | 0.00 | 0.00 | 41 | 1013.0 |
| 20260510053059 | 60 | 251 | 0.0 | 0.0 | 0.00 | 0.00 | 0.00 | 41 | 1013.0 |
| 20260510052100 | 60 | 251 | 0.0 | 0.0 | 0.00 | 0.00 | 0.00 | 41 | 1013.0 |
| 20260510051059 | 60 | 251 | 0.0 | 0.0 | 0.00 | 0.00 | 0.00 | 41 | 1013.0 |
| 20260510045059 | 61 | 251 | 0.0 | 0.0 | 0.00 | 0.00 | 0.00 | 41 | 1013.0 |
| 20260510044059 | 61 | 251 | 0.0 | 0.0 | 0.00 | 0.00 | 0.00 | 41 | 1013.0 |
| 20260510043100 | 62 | 251 | 0.0 | 0.0 | 0.00 | 0.00 | 0.00 | 41 | 1013.0 |
| 20260510042059 | 62 | 251 | 0.0 | 0.0 | 0.00 | 0.00 | 0.00 | 41 | 1013.0 |
| 20260510041100 | 62 | 251 | 0.0 | 0.0 | 0.00 | 0.00 | 0.00 | 41 | 1013.0 |
| 20260510040101 | 62 | 251 | 0.0 | 0.0 | 0.00 | 0.00 | 0.00 | 41 | 1013.0 |
| 20260510035059 | 62 | 251 | 0.0 | 0.0 | 0.00 | 0.00 | 0.00 | 41 | 1013.0 |
| 20260510034100 | 63 | 251 | 0.0 | 3.0 | 0.00 | 0.00 | 0.00 | 41 | 1013.0 |
| 20260510033059 | 63 | 251 | 0.0 | 0.0 | 0.00 | 0.00 | 0.00 | 41 | 1013.0 |
| 20260510032100 | 63 | 251 | 0.0 | 0.0 | 0.00 | 0.00 | 0.00 | 41 | 1013.0 |
| 20260510023059 | 65 | 251 | 0.0 | 0.0 | 0.00 | 0.00 | 0.00 | 41 | 1013.0 |
| 20260510022059 | 66 | 251 | 0.0 | 0.0 | 0.00 | 0.00 | 0.00 | 41 | 1013.0 |
| 20260510021059 | 66 | 251 | 0.0 | 0.0 | 0.00 | 0.00 | 0.00 | 41 | 1013.0 |
| 20260510014059 | 67 | 251 | 0.0 | 0.0 | 0.00 | 0.00 | 0.00 | 41 | 1013.0 |
| 20260510013059 | 67 | 251 | 0.0 | 0.0 | 0.00 | 0.00 | 0.00 | 41 | 1013.0 |
| 20260510012059 | 68 | 251 | 0.0 | 0.0 | 0.00 | 0.00 | 0.00 | 41 | 1013.0 |
| 20260510011059 | 69 | 251 | 0.0 | 0.0 | 0.00 | 0.00 | 0.00 | 41 | 1013.0 |
| 20260510005059 | 69 | 251 | 0.0 | 0.0 | 0.00 | 0.00 | 0.00 | 41 | 1013.0 |
| 20260510004059 | 69 | 251 | 0.0 | 0.0 | 0.00 | 0.00 | 0.00 | 41 | 1013.0 |
| 20260510003059 | 70 | 251 | 0.0 | 0.0 | 0.00 | 0.00 | 0.00 | 41 | 1013.0 |
| 20260510002059 | 70 | 249 | 0.0 | 0.0 | 0.00 | 0.00 | 0.00 | 41 | 1013.0 |
| 20260510001059 | 71 | 249 | 0.0 | 0.0 | 0.00 | 0.00 | 0.00 | 41 | 1013.0 |
| 20260509235059 | 72 | 249 | 0.0 | 0.0 | 0.00 | 0.00 | 0.00 | 41 | 1013.0 |
| 20260509233100 | 73 | 249 | 0.0 | 2.0 | 0.00 | 0.00 | 0.00 | 41 | 1013.0 |
| 20260509232100 | 73 | 249 | 1.0 | 3.0 | 0.00 | 0.00 | 0.00 | 41 | 1013.0 |
| 20260509231059 | 74 | 238 | 1.0 | 5.0 | 0.00 | 0.00 | 0.00 | 41 | 1013.0 |
| 20260509224100 | 75 | 229 | 2.0 | 6.0 | 0.00 | 0.00 | 0.00 | 41 | 1013.0 |
| 20260509223100 | 75 | 286 | 2.0 | 9.0 | 0.00 | 0.00 | 0.00 | 41 | 1013.0 |
| 20260509222100 | 75 | 224 | 2.0 | 12.0 | 0.00 | 0.00 | 0.00 | 41 | 1013.0 |
| 20260509221100 | 75 | 216 | 9.0 | 16.0 | 0.00 | 0.00 | 0.00 | 41 | 1013.0 |
| 20260509215100 | 74 | 227 | 6.0 | 13.0 | 0.00 | 0.00 | 0.00 | 41 | 1013.0 |
| 20260509214100 | 74 | 227 | 5.0 | 15.0 | 0.00 | 0.00 | 0.00 | 41 | 1013.0 |
| 20260509212100 | 76 | 220 | 6.0 | 12.0 | 0.00 | 0.00 | 0.00 | 41 | 1013.0 |
| 20260509211059 | 75 | 233 | 5.0 | 10.0 | 0.00 | 0.00 | 0.00 | 41 | 1013.0 |
| 20260509203059 | 75 | 209 | 7.0 | 10.0 | 0.00 | 0.00 | 0.00 | 41 | 1013.0 |
| 20260509202059 | 74 | 252 | 6.0 | 14.0 | 0.00 | 0.00 | 0.00 | 41 | 1013.0 |
| 20260509195100 | 74 | 245 | 5.0 | 13.0 | 0.00 | 0.00 | 0.00 | 41 | 1013.0 |
| 20260509194059 | 74 | 202 | 7.0 | 14.0 | 0.00 | 0.00 | 0.00 | 41 | 1013.0 |
| 20260509192100 | 74 | 272 | 6.0 | 16.0 | 0.00 | 0.00 | 0.00 | 41 | 1013.0 |
| 20260509184059 | 73 | 246 | 4.0 | 17.0 | 0.00 | 0.00 | 0.00 | 41 | 1013.0 |
| 20260509183100 | 74 | 239 | 5.0 | 14.0 | 0.00 | 0.00 | 0.00 | 41 | 1013.0 |
| 20260509182100 | 73 | 222 | 8.0 | 14.0 | 0.00 | 0.00 | 0.00 | 41 | 1013.0 |
| 20260509181100 | 73 | 210 | 8.0 | 13.0 | 0.00 | 0.00 | 0.00 | 41 | 1013.0 |
| 20260509175059 | 72 | 218 | 7.0 | 14.0 | 0.00 | 0.00 | 0.00 | 41 | 1013.0 |
| 20260509174100 | 72 | 259 | 6.0 | 16.0 | 0.00 | 0.00 | 0.00 | 41 | 1013.0 |
| 20260509171100 | 70 | 223 | 7.0 | 15.0 | 0.00 | 0.00 | 0.00 | 41 | 1013.0 |
| 20260509165059 | 69 | 242 | 7.0 | 18.0 | 0.00 | 0.00 | 0.00 | 41 | 1013.0 |
| 20260509164100 | 69 | 257 | 6.0 | 15.0 | 0.00 | 0.00 | 0.00 | 41 | 1013.0 |
| 20260509163101 | 68 | 202 | 5.0 | 20.0 | 0.00 | 0.00 | 0.00 | 41 | 1013.0 |
| 20260509162100 | 67 | 225 | 9.0 | 15.0 | 0.00 | 0.00 | 0.00 | 41 | 1013.0 |
| 20260509155100 | 65 | 212 | 5.0 | 14.0 | 0.00 | 0.00 | 0.00 | 41 | 1013.0 |
| 20260509154059 | 64 | 207 | 9.0 | 15.0 | 0.00 | 0.00 | 0.00 | 41 | 1013.0 |
| 20260509153100 | 64 | 207 | 6.0 | 13.0 | 0.00 | 0.00 | 0.00 | 41 | 1013.0 |
| 20260509152100 | 63 | 245 | 6.0 | 17.0 | 0.00 | 0.00 | 0.00 | 41 | 1013.0 |
| 20260509145059 | 62 | 228 | 9.0 | 16.0 | 0.00 | 0.00 | 0.00 | 41 | 1013.0 |
| 20260509144059 | 61 | 219 | 6.0 | 17.0 | 0.00 | 0.00 | 0.00 | 41 | 1013.0 |
| 20260509142100 | 60 | 206 | 6.0 | 12.0 | 0.00 | 0.00 | 0.00 | 41 | 1013.0 |
| 20260509141100 | 59 | 216 | 6.0 | 9.0 | 0.00 | 0.00 | 0.00 | 41 | 1013.0 |
| 20260509135059 | 58 | 230 | 5.0 | 8.0 | 0.00 | 0.00 | 0.00 | 41 | 1013.0 |
| 20260509133059 | 57 | 209 | 3.0 | 6.0 | 0.00 | 0.00 | 0.00 | 41 | 1013.0 |
| 20260509132100 | 57 | 219 | 3.0 | 6.0 | 0.00 | 0.00 | 0.00 | 41 | 1013.0 |
| 20260509131059 | 57 | 232 | 2.0 | 5.0 | 0.00 | 0.00 | 0.00 | 41 | 1013.0 |